Terminal Aerodrome Forecast
Issued by NWS

Home | Current Version | Previous Version | Text Only | Print | Product List | Glossary On
Versions: 1 2 3 4 5 6 7 8 9 10 11 12 13
000
FTAK31 PAJN 270500
TAFAPG
TAF
PAPG 270520Z 2706/2806 00000KT P6SM -RA SCT006 SCT015 OVC035
      TEMPO 2706/2709 5SM -RA BR FEW006 BKN025
     FM271000 24003KT 6SM BR VCSH FEW005 SCT015 OVC035
     FM271400 00000KT 1SM BCFG SCT003
     FM271900 06003KT 6SM BCFG FEW003
      AMD LTD TO CLD VIS AND WIND 2706/2715=

USA.gov is the U.S. government's official web portal to all federal, state and local government web resources and services.